SB KEPS @ AMSAT $ORB13164.O Orbital Elements 13164.OSCAR
HR AMSAT ORBITAL ELEMENTS FOR OSCAR SATELLITES FROM WA5QGD FORT WORTH,TX June 13, 2013 BID: ORB13164.O TO ALL RADIO AMATEURS BT
Satellite: AO-07 Catalog number: 07530 Epoch time: 13164.83681130 Element set: 705 Inclination: 101.4300 deg RA of node: 154.4642 deg Eccentricity: 0.0011418 Arg of perigee: 295.9011 deg Mean anomaly: 126.9188 deg Mean motion: 12.53596543 rev/day Decay rate: -1.7e-07 rev/day^2 Epoch rev: 76536 Checksum: 281
Satellite: FO-29 Catalog number: 24278 Epoch time: 13164.82317723 Element set: 137 Inclination: 098.5562 deg RA of node: 223.8407 deg Eccentricity: 0.0351028 Arg of perigee: 172.7120 deg Mean anomaly: 307.8041 deg Mean motion: 13.53002037 rev/day Decay rate: 3.0e-08 rev/day^2 Epoch rev: 83085 Checksum: 279
Satellite: SO-33 Catalog number: 25509 Epoch time: 13164.14415692 Element set: 516 Inclination: 031.4329 deg RA of node: 090.5106 deg Eccentricity: 0.0351231 Arg of perigee: 122.5762 deg Mean anomaly: 007.6070 deg Mean motion: 14.29084269 rev/day Decay rate: 3.88e-06 rev/day^2 Epoch rev: 76431 Checksum: 284
Satellite: RS-22 Catalog number: 27939 Epoch time: 13164.76588939 Element set: 497 Inclination: 097.7986 deg RA of node: 352.7928 deg Eccentricity: 0.0012897 Arg of perigee: 193.3056 deg Mean anomaly: 166.7812 deg Mean motion: 14.64473335 rev/day Decay rate: 3.13e-06 rev/day^2 Epoch rev: 51879 Checksum: 378
Satellite: VO-52 Catalog number: 28650 Epoch time: 13164.14009008 Element set: 447 Inclination: 097.5680 deg RA of node: 182.9501 deg Eccentricity: 0.0024199 Arg of perigee: 294.6310 deg Mean anomaly: 105.4157 deg Mean motion: 14.83908529 rev/day Decay rate: 5.20e-06 rev/day^2 Epoch rev: 43848 Checksum: 307
Satellite: HO-68 Catalog number: 36122 Epoch time: 13164.70560579 Element set: 636 Inclination: 100.3060 deg RA of node: 221.8462 deg Eccentricity: 0.0007546 Arg of perigee: 005.4878 deg Mean anomaly: 354.6312 deg Mean motion: 13.16305035 rev/day Decay rate: -4.4e-07 rev/day^2 Epoch rev: 16795 Checksum: 285
/EX SB KEPS @ AMSAT $ORB13164.D Orbital Elements 13164.MICROS
HR AMSAT ORBITAL ELEMENTS FOR THE MICROSATS FROM WA5QGD FORT WORTH,TX June 13, 2013 BID: ORB13164.D TO ALL RADIO AMATEURS BT
Satellite: UO-11 Catalog number: 14781 Epoch time: 13164.18875160 Element set: 204 Inclination: 097.9033 deg RA of node: 225.5581 deg Eccentricity: 0.0007457 Arg of perigee: 304.1934 deg Mean anomaly: 055.8571 deg Mean motion: 14.80910577 rev/day Decay rate: 1.90e-06 rev/day^2 Epoch rev: 57334 Checksum: 301
Satellite: AO-16 Catalog number: 20439 Epoch time: 13164.46081054 Element set: 770 Inclination: 098.4703 deg RA of node: 104.5744 deg Eccentricity: 0.0011426 Arg of perigee: 164.1899 deg Mean anomaly: 311.0726 deg Mean motion: 14.32179929 rev/day Decay rate: 3.6e-07 rev/day^2 Epoch rev: 22170 Checksum: 289
Satellite: LO-19 Catalog number: 20442 Epoch time: 13164.07009381 Element set: 703 Inclination: 098.4394 deg RA of node: 105.9913 deg Eccentricity: 0.0012560 Arg of perigee: 156.7619 deg Mean anomaly: 264.2123 deg Mean motion: 14.32390668 rev/day Decay rate: 2.7e-07 rev/day^2 Epoch rev: 22184 Checksum: 288
Satellite: AO-27 Catalog number: 22825 Epoch time: 13164.07540632 Element set: 406 Inclination: 098.6175 deg RA of node: 108.1435 deg Eccentricity: 0.0007283 Arg of perigee: 303.9770 deg Mean anomaly: 117.1584 deg Mean motion: 14.29568438 rev/day Decay rate: 2.4e-07 rev/day^2 Epoch rev: 2804 Checksum: 295
Satellite: IO-26 Catalog number: 22826 Epoch time: 13164.44287435 Element set: 163 Inclination: 098.6115 deg RA of node: 108.7946 deg Eccentricity: 0.0007751 Arg of perigee: 294.7713 deg Mean anomaly: 214.1588 deg Mean motion: 14.29853197 rev/day Decay rate: 2.7e-07 rev/day^2 Epoch rev: 2822 Checksum: 320
Satellite: GO-32 Catalog number: 25397 Epoch time: 13164.81562385 Element set: 95 Inclination: 098.4137 deg RA of node: 132.7202 deg Eccentricity: 0.0000557 Arg of perigee: 024.5799 deg Mean anomaly: 035.6357 deg Mean motion: 14.23344404 rev/day Decay rate: 3.5e-07 rev/day^2 Epoch rev: 77546 Checksum: 306
Satellite: NO-44 Catalog number: 26931 Epoch time: 13164.76735270 Element set: 349 Inclination: 067.0525 deg RA of node: 268.3242 deg Eccentricity: 0.0007649 Arg of perigee: 280.9913 deg Mean anomaly: 222.3665 deg Mean motion: 14.29931715 rev/day Decay rate: 8.0e-08 rev/day^2 Epoch rev: 61093 Checksum: 314
Satellite: SO-50 Catalog number: 27607 Epoch time: 13164.10989742 Element set: 88 Inclination: 064.5577 deg RA of node: 276.5497 deg Eccentricity: 0.0045574 Arg of perigee: 165.6025 deg Mean anomaly: 252.9671 deg Mean motion: 14.72959583 rev/day Decay rate: 1.91e-06 rev/day^2 Epoch rev: 56311 Checksum: 344
Satellite: CO-55 Catalog number: 27844 Epoch time: 13163.84935307 Element set: 670 Inclination: 098.7005 deg RA of node: 172.9846 deg Eccentricity: 0.0008521 Arg of perigee: 258.8264 deg Mean anomaly: 223.3314 deg Mean motion: 14.21226003 rev/day Decay rate: 1.28e-06 rev/day^2 Epoch rev: 51611 Checksum: 292
Satellite: CO-57 Catalog number: 27848 Epoch time: 13164.83494507 Element set: 616 Inclination: 098.7090 deg RA of node: 173.4668 deg Eccentricity: 0.0008458 Arg of perigee: 262.0147 deg Mean anomaly: 221.1551 deg Mean motion: 14.20951319 rev/day Decay rate: 1.00e-06 rev/day^2 Epoch rev: 51618 Checksum: 308
Satellite: AO-51 Catalog number: 28375 Epoch time: 13164.84058683 Element set: 581 Inclination: 098.2006 deg RA of node: 120.4334 deg Eccentricity: 0.0083803 Arg of perigee: 027.1729 deg Mean anomaly: 355.2428 deg Mean motion: 14.41125627 rev/day Decay rate: 1.07e-06 rev/day^2 Epoch rev: 47085 Checksum: 298
Satellite: CP3 Catalog number: 31129 Epoch time: 13164.48154214 Element set: 484 Inclination: 097.8970 deg RA of node: 157.3281 deg Eccentricity: 0.0101634 Arg of perigee: 079.3988 deg Mean anomaly: 038.3796 deg Mean motion: 14.53669846 rev/day Decay rate: 4.48e-06 rev/day^2 Epoch rev: 32645 Checksum: 338
Satellite: CO-65 Catalog number: 32785 Epoch time: 13164.18955573 Element set: 657 Inclination: 097.7519 deg RA of node: 221.8385 deg Eccentricity: 0.0012997 Arg of perigee: 324.1818 deg Mean anomaly: 068.9740 deg Mean motion: 14.83903953 rev/day Decay rate: 5.10e-06 rev/day^2 Epoch rev: 27728 Checksum: 355
Satellite: PRISM Catalog number: 33493 Epoch time: 13164.78070310 Element set: 896 Inclination: 098.2169 deg RA of node: 321.5974 deg Eccentricity: 0.0017722 Arg of perigee: 200.1566 deg Mean anomaly: 159.8927 deg Mean motion: 14.86020412 rev/day Decay rate: 2.375e-05 rev/day^2 Epoch rev: 23741 Checksum: 302
Satellite: SOHLA-1 Catalog number: 33496 Epoch time: 13164.38507933 Element set: 70 Inclination: 098.1345 deg RA of node: 280.4135 deg Eccentricity: 0.0005682 Arg of perigee: 343.9975 deg Mean anomaly: 057.0285 deg Mean motion: 14.70301007 rev/day Decay rate: 1.51e-06 rev/day^2 Epoch rev: 23531 Checksum: 281
Satellite: SO-67 Catalog number: 35870 Epoch time: 13164.82791807 Element set: 149 Inclination: 097.1916 deg RA of node: 193.6957 deg Eccentricity: 0.0002091 Arg of perigee: 032.0954 deg Mean anomaly: 054.2019 deg Mean motion: 15.27158125 rev/day Decay rate: 3.821e-05 rev/day^2 Epoch rev: 20774 Checksum: 316
Satellite: TISAT-1 Catalog number: 36799 Epoch time: 13164.88021818 Element set: 166 Inclination: 098.0343 deg RA of node: 249.5496 deg Eccentricity: 0.0015999 Arg of perigee: 080.3674 deg Mean anomaly: 279.9296 deg Mean motion: 14.83347271 rev/day Decay rate: 1.635e-05 rev/day^2 Epoch rev: 15808 Checksum: 356
Satellite: STUDSAT Catalog number: 36801 Epoch time: 13163.33877961 Element set: 643 Inclination: 098.0454 deg RA of node: 251.0950 deg Eccentricity: 0.0012525 Arg of perigee: 070.3822 deg Mean anomaly: 330.3410 deg Mean motion: 14.88418177 rev/day Decay rate: 3.303e-05 rev/day^2 Epoch rev: 15800 Checksum: 272
Satellite: ALMASAT-1 Catalog number: 38078 Epoch time: 13164.61798220 Element set: 349 Inclination: 069.4725 deg RA of node: 209.3132 deg Eccentricity: 0.0694276 Arg of perigee: 151.8085 deg Mean anomaly: 212.2515 deg Mean motion: 14.24958232 rev/day Decay rate: 2.0859e-04 rev/day^2 Epoch rev: 6873 Checksum: 322
Satellite: XATCOBEO Catalog number: 38082 Epoch time: 13164.83022896 Element set: 230 Inclination: 069.4679 deg RA of node: 184.4329 deg Eccentricity: 0.0572930 Arg of perigee: 138.2272 deg Mean anomaly: 283.9674 deg Mean motion: 14.56017901 rev/day Decay rate: 4.6471e-04 rev/day^2 Epoch rev: 6943 Checksum: 326
Satellite: SOMP Catalog number: 39135 Epoch time: 13164.54642441 Element set: 121 Inclination: 064.8776 deg RA of node: 220.0168 deg Eccentricity: 0.0014489 Arg of perigee: 207.1435 deg Mean anomaly: 152.8919 deg Mean motion: 15.00275945 rev/day Decay rate: 2.723e-05 rev/day^2 Epoch rev: 828 Checksum: 288
Satellite: CUBEBUG-1 Catalog number: 39153 Epoch time: 13164.88273417 Element set: 151 Inclination: 098.0747 deg RA of node: 240.6307 deg Eccentricity: 0.0019888 Arg of perigee: 094.3809 deg Mean anomaly: 265.9630 deg Mean motion: 14.76440863 rev/day Decay rate: 9.58e-06 rev/day^2 Epoch rev: 719 Checksum: 331
Satellite: ESTCUBE-1 Catalog number: 39161 Epoch time: 13164.75830846 Element set: 106 Inclination: 098.1262 deg RA of node: 243.0329 deg Eccentricity: 0.0010785 Arg of perigee: 120.8339 deg Mean anomaly: 239.3914 deg Mean motion: 14.68969511 rev/day Decay rate: 7.56e-06 rev/day^2 Epoch rev: 549 Checksum: 309
/EX SB KEPS @ AMSAT $ORB13164.W Orbital Elements 13164.WEATHER
HR AMSAT ORBITAL ELEMENTS FOR WEATHER SATELLITES FROM WA5QGD FORT WORTH,TX June 13, 2013 BID: ORB13164.W TO ALL RADIO AMATEURS BT
Satellite: NOAA-10 Catalog number: 16969 Epoch time: 13164.34524663 Element set: 390 Inclination: 098.5457 deg RA of node: 192.2676 deg Eccentricity: 0.0011201 Arg of perigee: 253.7868 deg Mean anomaly: 227.8276 deg Mean motion: 14.27644500 rev/day Decay rate: 1.4e-07 rev/day^2 Epoch rev: 39139 Checksum: 315
